Regional Weather Roundup
Issued by NWS

Home | Current Version | Previous Version | Text Only | Print | Product List | Glossary Off
Versions: 1 2 3 4 5 6 7 8 9 10 11 12 13 14 15 16 17 18 19 20 21 22 23 24 25 26 27 28 29 30 31 32 33 34 35 36 37 38 39 40 41 42 43 44 45 46 47 48 49 50

000
ASUS43 KOAX 171810
RWRNE

WEATHER ROUNDUP FOR NEBRASKA
NATIONAL WEATHER SERVICE OMAHA NE
1200 PM CST FRI NOV 17 2017

NOTES: SATELLITE DATA IS BEING USED TO AUGMENT CLOUD COVER ABOVE
       12000 FEET.
       "FAIR" INDICATES FEW OR NO CLOUDS BELOW 12,000 FEET WITH NO
       SIGNIFICANT WEATHER AND/OR OBSTRUCTIONS TO VISIBILITY.


NEZ001>004-019>022-054>056-171900-
NEBRASKA PANHANDLE

CITY           SKY/WX    TMP DP  RH WIND       PRES   REMARKS
SCOTTSBLUFF    PTSUNNY   47  28  47 SE7       29.65F
6HR MIN TEMP:  40; 6HR MAX TEMP:  48;

ALLIANCE       MOSUNNY   49  30  48 E6        29.65F
6HR MIN TEMP:  28; 6HR MAX TEMP:  49;

CHADRON        CLOUDY    45  32  60 E7        29.66F
6HR MIN TEMP:  36; 6HR MAX TEMP:  45; 6HR PCP:  0.01;

GORDON         MOCLDY    44  30  58 E9        29.65F
6HR MIN TEMP:  33; 6HR MAX TEMP:  45;

KIMBALL        CLOUDY    46  30  54 E6        29.66F
SIDNEY         CLOUDY    46  29  51 E9        29.66F
6HR MIN TEMP:  30; 6HR MAX TEMP:  47;

$$

NEZ057>060-069>072-079>082-171900-
SOUTHWEST NEBRASKA

CITY           SKY/WX    TMP DP  RH WIND       PRES   REMARKS
NORTH PLATTE   CLOUDY    52  32  46 N14G22    29.64S
6HR MIN TEMP:  32; 6HR MAX TEMP:  52;

LEXINGTON      MOSUNNY   53  35  50 N13G18    29.59S
MCCOOK         SUNNY     60  37  42 N9        29.58F
6HR MIN TEMP:  38; 6HR MAX TEMP:  60;

OGALLALA       CLOUDY    51  31  46 NE15      29.65F
$$

NEZ005>010-023>029-035>040-094-171900-
NORTH CENTRAL NEBRASKA

CITY           SKY/WX    TMP DP  RH WIND       PRES   REMARKS
VALENTINE      CLOUDY    45  33  63 N9        29.68F
6HR MIN TEMP:  36; 6HR MAX TEMP:  46; 6HR PCP: TRACE;

AINSWORTH      CLOUDY    45  32  61 N14       29.68S
BROKEN BOW     CLOUDY    48  33  56 N22       29.59F
6HR MIN TEMP:  33; 6HR MAX TEMP:  48;

O`NEILL        CLOUDY    46  34  62 N18       29.63F
ORD            PTSUNNY   48  33  56 N15       29.58F
6HR MIN TEMP:  29; 6HR MAX TEMP:  48;

THEDFORD       CLOUDY    48  32  54 N10G17    29.66F
$$

NEZ041-046>049-061>064-073>077-083>087-171900-
SOUTH CENTRAL NEBRASKA

CITY           SKY/WX    TMP DP  RH WIND       PRES   REMARKS
GRAND ISLAND   MOSUNNY   53  45  74 N10       29.58F
6HR MIN TEMP:  46; 6HR MAX TEMP:  53;

AURORA         CLOUDY    52  47  85 NW7       29.57F
HASTINGS       SUNNY     52  44  74 N10       29.56F
6HR MIN TEMP:  49; 6HR MAX TEMP:  52;

HEBRON         SUNNY     63  50  62 CALM      29.54F
HOLDREGE       CLOUDY    53  41  64 CALM      29.56F
KEARNEY        SUNNY     54  39  57 N14       29.57F
YORK           CLOUDY    57  50  77 NW6       29.56F
$$

NEZ011>018-030>034-042>045-171900-
NORTHEAST NEBRASKA

CITY           SKY/WX    TMP DP  RH WIND       PRES   REMARKS
NORFOLK        CLOUDY    54  44  69 W10       29.54F
6HR MIN TEMP:  45; 6HR MAX TEMP:  56;

ALBION         CLOUDY    52  38  58 N13       29.57F
BLAIR          CLOUDY    58  54  85 S10       29.54F FOG
COLUMBUS       CLOUDY    58  48  69 SW9       29.56F
FREMONT        PTSUNNY   59  52  76 S5        29.55F
TEKAMAH        CLOUDY    59  52  77 S12       29.54F
6HR MIN TEMP:  47; 6HR MAX TEMP:  60;

WAYNE          CLOUDY    58  46  62 W9        29.55F
$$

NEZ050>053-065>068-078-088>093-171900-
SOUTHEAST NEBRASKA

CITY           SKY/WX    TMP DP  RH WIND       PRES   REMARKS
LINCOLN        CLOUDY    63  54  72 SW9       29.55F
6HR MIN TEMP:  54; 6HR MAX TEMP:  64;

OMAHA EPPLEY   CLOUDY    56  51  84 SE12      29.55F FOG
6HR MIN TEMP:  49; 6HR MAX TEMP:  57; 6HR PCP:  0.01;

BEATRICE       CLOUDY    66  54  66 SW9       29.54F
FALLS CITY     CLOUDY    60  56  86 S9        29.57F
6HR MIN TEMP:  55; 6HR MAX TEMP:  60;

NEBRASKA CITY  CLOUDY    58  58 100 S9G16     29.56F FOG
PLATTSMOUTH    CLOUDY    56  55  94 SE10      29.55F FOG
$$

NEZ044-045-051>053-067-171900-
OMAHA AREA

CITY           SKY/WX    TMP DP  RH WIND       PRES   REMARKS
OMAHA EPPLEY   CLOUDY    56  51  84 SE12      29.55F FOG
6HR MIN TEMP:  49; 6HR MAX TEMP:  57; 6HR PCP:  0.01;

BLAIR          CLOUDY    58  54  85 S10       29.54F FOG
FREMONT        PTSUNNY   59  52  76 S5        29.55F
MILLARD        CLOUDY    60  55  83 SE10      29.54F
PLATTSMOUTH    CLOUDY    56  55  94 SE10      29.55F FOG
WAHOO          CLOUDY    61  53  74 S7        29.54F
$$




USA.gov is the U.S. government's official web portal to all federal, state and local government web resources and services.